Stations météo

réclame
Mon MeteoGroup
Krångede, Suède (2247): Température de l'air & dewpoint: 08.08.2018 08:00:00 - 14.08.2018 08:00:00 (CEST)Krångede, Suède (2247): Vitesse du vent & gusts: 08.08.2018 08:00:00 - 14.08.2018 08:00:00 (CEST)Krångede, Suède (2247): Direction du vent: 08.08.2018 08:00:00 - 14.08.2018 08:00:00 (CEST)Krångede, Suède (2247): reduced air pressure: 08.08.2018 08:00:00 - 14.08.2018 08:00:00 (CEST)Krångede, Suède (2247): visibility: 08.08.2018 08:00:00 - 14.08.2018 08:00:00 (CEST)Krångede, Suède (2247): Quantités de précipitations: 08.08.2018 08:00:00 - 14.08.2018 08:00:00 (CEST)
Date & Time tt [°C] td [°C] ff [km/h] ff [knt] fx [km/h] fx [knt] dd ppp [hPa] vv [km] rr [mm]
14.08.2018 08:00:00 11,1 3,9 13 7 24 13 NW 1010,8 50 0,0
14.08.2018 07:00:00 10,2 5,4 10 5 16 9 NNW 1010,8 50 0,0
14.08.2018 06:00:00 8,6 4,4 5 3 8 4 NW 1011,0 50 0,0
14.08.2018 05:00:00 5,9 2,9 0 0 6 3 N 1011,0 50 0,0
14.08.2018 04:00:00 6,0 2,8 3 2 7 4 NNW 1010,9 50 0,0
14.08.2018 03:00:00 6,6 2,9 0 0 7 4 N 1010,7 21 0,0
14.08.2018 02:00:00 7,1 3,0 4 2 19 10 NNW 1010,2 50 0,0
14.08.2018 01:00:00 10,7 3,7 3 2 19 10 NNW 1009,8 50 0,0
14.08.2018 00:00:00 11,5 3,8 4 2 17 9 WNW 1009,8 50 0,0
13.08.2018 23:00:00 11,9 3,6 6 4 20 11 WNW 1009,6 50 0,0
13.08.2018 22:00:00 12,1 4,3 4 2 20 11 WNW 1009,5 50 0,0
13.08.2018 21:00:00 12,1 4,6 8 5 26 14 WNW 1009,1 50 0,0
13.08.2018 20:00:00 13,9 4,7 7 4 32 17 WNW 1008,3 50 0,0
13.08.2018 19:00:00 15,2 4,0 14 7 32 17 WNW 1007,8 50 0,0
13.08.2018 18:00:00 15,6 4,6 8 4 35 19 WNW 1007,6 50 0,0
13.08.2018 17:00:00 15,4 3,5 19 10 35 19 NW 1007,6 50 0,0
13.08.2018 16:00:00 16,2 4,0 18 10 45 25 NW 1007,4 46 0,0
13.08.2018 15:00:00 15,8 4,2 26 14 45 25 NNW 1007,2 42 0,0
13.08.2018 14:00:00 15,4 4,4 19 10 33 18 NW 1007,2 46 0,0
13.08.2018 13:00:00 14,7 4,4 17 9 34 18 NW 1007,1 44 0,0
13.08.2018 12:00:00 14,1 4,9 18 10 34 18 NW 1006,8 48 0,0
13.08.2018 11:00:00 12,9 5,1 17 9 34 19 NW 1006,9 47 0,0
13.08.2018 10:00:00 13,3 5,2 9 5 39 21 WNW 1006,3 48 0,0
13.08.2018 09:00:00 12,5 5,2 17 9 39 21 NW 1006,0 45 0,0
13.08.2018 08:00:00 11,9 5,5 8 4 24 13 WNW 1005,7 43 0,0
13.08.2018 07:00:00 11,0 5,7 9 5 26 14 W 1005,5 50 0,0
13.08.2018 06:00:00 10,3 6,1 6 4 26 14 W 1005,4 50 0,0
13.08.2018 05:00:00 10,5 5,7 9 5 21 11 W 1005,5 50 0,0
13.08.2018 04:00:00 10,4 5,4 6 4 23 13 WNW 1005,5 50 0,0
13.08.2018 03:00:00 10,4 5,4 11 6 23 13 W 1005,5 50 0,0
13.08.2018 02:00:00 10,6 5,4 8 4 22 12 W 1005,6 50 0,0
13.08.2018 01:00:00 11,2 5,5 10 5 22 12 W 1005,5 50 0,0
13.08.2018 00:00:00 11,3 5,2 8 5 20 11 W 1005,5 50 0,0
12.08.2018 23:00:00 11,6 5,0 6 4 27 15 W 1005,4 50 0,0
12.08.2018 22:00:00 12,6 4,6 9 5 27 15 WNW 1005,4 50 0,0
12.08.2018 21:00:00 13,2 4,4 10 5 25 14 WNW 1005,3 50 0,0
12.08.2018 20:00:00 14,1 4,4 9 5 39 21 WNW 1005,1 50 0,0
12.08.2018 19:00:00 14,3 5,4 9 5 39 21 W 1005,1 50 0,0
12.08.2018 18:00:00 15,4 4,7 9 5 33 18 WNW 1005,0 50 0,0
12.08.2018 17:00:00 16,0 4,7 11 6 29 16 WNW 1005,2 47 0,0
12.08.2018 16:00:00 16,3 4,3 11 6 35 19 WNW 1005,2 48 0,0
12.08.2018 15:00:00 15,9 4,0 15 8 38 20 NW 1005,5 43 0,0
12.08.2018 14:00:00 16,0 3,7 10 5 38 20 W 1005,8 39 0,0
12.08.2018 13:00:00 15,6 3,4 16 9 38 20 NW 1006,1 42 0,0
12.08.2018 12:00:00 14,6 4,6 14 7 34 18 NW 1006,6 43 0,0
12.08.2018 11:00:00 14,1 4,1 13 7 28 15 NW 1007,0 46 0,0
12.08.2018 10:00:00 14,4 5,2 14 7 24 13 WNW 1007,1 40 0,0
12.08.2018 09:00:00 12,9 5,1 12 7 24 13 NW 1007,6 44 0,0
12.08.2018 08:00:00 10,5 5,3 4 2 10 5 NW 1008,1 41 0,0
12.08.2018 07:00:00 8,0 4,4 3 1 10 5 N 1008,9 48 0,0
12.08.2018 06:00:00 8,1 4,7 5 3 12 6 NW 1009,0 49 0,0
12.08.2018 05:00:00 7,8 4,7 9 5 12 6 NNW 1009,4 50 0,0
12.08.2018 04:00:00 8,3 4,3 0 0 12 7 N 1009,8 50 0,0
12.08.2018 03:00:00 8,2 5,0 4 2 12 7 NW 1010,2 50 0,0
12.08.2018 02:00:00 8,5 5,4 4 2 10 5 N 1010,7 50 0,0
12.08.2018 01:00:00 8,4 5,2 3 1 8 5 NNW 1011,2 50 0,0
12.08.2018 00:00:00 9,1 5,5 3 2 9 5 N 1011,2 50 0,0
11.08.2018 23:00:00 8,5 4,5 0 0 13 7 N 1011,4 50 0,0
11.08.2018 22:00:00 8,7 3,7 0 0 16 9 N 1011,6 50 0,0
11.08.2018 21:00:00 11,4 5,3 7 4 19 11 NW 1011,1 50 0,0
11.08.2018 20:00:00 14,9 4,9 8 4 25 14 WNW 1010,8 50 0,0
11.08.2018 19:00:00 16,7 4,4 9 5 31 17 WNW 1010,3 50 0,0
11.08.2018 18:00:00 16,6 5,2 16 8 32 17 NW 1010,8 50 0,0
11.08.2018 17:00:00 17,3 4,3 14 8 32 17 WNW 1010,7 50 0,0
11.08.2018 16:00:00 17,0 5,6 10 5 32 17 WNW 1010,8 50 0,0
11.08.2018 15:00:00 16,9 5,2 8 5 43 23 W 1010,8 42 0,0
11.08.2018 14:00:00 16,6 5,2 13 7 45 24 W 1010,2 43 0,0
11.08.2018 13:00:00 18,1 5,0 10 5 46 25 W 1008,9 42 0,0
11.08.2018 12:00:00 15,9 5,8 16 9 46 25 W 1008,9 46 0,0
11.08.2018 11:00:00 15,3 5,2 12 6 46 25 W 1008,4 50 0,0
11.08.2018 10:00:00 15,3 5,2 19 11 46 25 W 1007,1 50 0,0
11.08.2018 09:00:00 14,3 5,6 13 7 49 27 W 1005,8 50 0,0
11.08.2018 08:00:00 14,2 6,3 15 8 49 27 W 1004,1 38 0,0
11.08.2018 07:00:00 14,4 7,4 10 5 34 19 W 1002,5 50 0,0
11.08.2018 06:00:00 13,2 8,7 10 5 44 24 W 1001,1 22 0,0
11.08.2018 05:00:00 13,1 8,4 19 11 44 24 SSW 999,8 15 0,0
11.08.2018 04:00:00 14,7 6,0 22 12 44 24 S 998,9 50 0,0
11.08.2018 03:00:00 15,3 5,2 14 8 44 24 SSW 998,9 50 0,0
11.08.2018 02:00:00 15,6 5,8 18 10 42 23 S 999,1 50 0,0
11.08.2018 01:00:00 16,4 7,3 23 12 42 23 S 999,5 50 0,0
11.08.2018 00:00:00 15,9 8,4 13 7 31 17 S 1000,1 49 0,0
10.08.2018 23:00:00 16,6 9,3 21 11 35 19 S 1000,1 44 0,0
10.08.2018 22:00:00 16,9 9,3 17 9 48 26 S 1000,2 50 0,0
10.08.2018 21:00:00 18,5 10,1 20 11 60 32 S 1000,2 50 0,0
10.08.2018 20:00:00 20,6 12,6 28 15 43 23 S 999,6 42 0,0
10.08.2018 19:00:00 20,7 16,7 7 4 23 12 ESE 999,7 26 0,0
10.08.2018 18:00:00 20,6 16,8 14 7 23 12 SE 1000,7 23 0,0
10.08.2018 17:00:00 20,4 17,2 8 4 21 11 ESE 1001,2 17 0,0
10.08.2018 16:00:00 18,7 16,1 7 4 21 11 ESE 1002,2 8 0,4
10.08.2018 15:00:00 18,3 15,7 9 5 19 10 E 1002,9 8 0,3
10.08.2018 14:00:00 18,2 15,6 8 4 18 10 E 1004,2 12 0,2
10.08.2018 13:00:00 16,9 14,7 6 3 16 9 SSE 1005,2 8 0,1
10.08.2018 12:00:00 16,8 14,3 3 2 10 5 E 1005,9 22 0,3
10.08.2018 11:00:00 15,8 12,5 2 1 8 5 NE 1007,6 8 0,4
10.08.2018 10:00:00 15,7 11,9 3 2 10 6 S 1008,7 45 0,0
10.08.2018 09:00:00 15,5 11,1 0 0 10 6 N 1009,1 46 0,1
10.08.2018 08:00:00 14,7 11,5 6 3 10 6 NNE 1009,6 50 0,0
10.08.2018 07:00:00 14,5 10,5 0 0 4 2 N 1010,2 37 0,0
10.08.2018 06:00:00 12,5 9,7 0 0 5 3 N 1011,1 29 0,0
10.08.2018 05:00:00 10,4 8,3 2 1 5 3 WNW 1011,6 23 0,0
10.08.2018 04:00:00 11,1 8,7 0 0 3 2 N 1012,4 22 0,0
10.08.2018 03:00:00 11,3 8,7 0 0 6 3 N 1012,5 45 0,0
10.08.2018 02:00:00 12,9 10,1 0 0 6 3 N 1012,2 30 0,0
10.08.2018 01:00:00 13,5 9,7 2 1 8 5 NNW 1012,5 50 0,0
10.08.2018 00:00:00 13,5 9,5 0 0 12 6 N 1012,4 50 -
09.08.2018 23:00:00 15,5 11,3 4 2 12 6 NNE 1011,8 50 0,0
09.08.2018 22:00:00 16,2 12,2 0 0 7 4 N 1011,4 50 0,0
09.08.2018 21:00:00 17,9 12,8 2 1 8 4 NE 1011,2 50 0,0
09.08.2018 20:00:00 20,7 14,4 3 2 9 5 NNE 1010,8 50 0,0
09.08.2018 19:00:00 22,5 13,8 3 2 14 8 N 1010,2 48 0,0
09.08.2018 18:00:00 22,8 13,8 0 0 22 12 N 1010,2 47 0,0
09.08.2018 17:00:00 23,6 13,2 12 7 22 12 NNW 1010,3 45 0,0
09.08.2018 16:00:00 24,1 11,8 3 2 20 11 N 1010,1 48 0,0
09.08.2018 15:00:00 23,0 13,5 14 7 20 11 NNW 1010,1 36 0,0
09.08.2018 14:00:00 23,8 12,1 5 3 18 10 SW 1010,0 43 0,0
09.08.2018 13:00:00 23,8 12,4 5 3 16 8 SW 1009,8 34 0,0
09.08.2018 12:00:00 21,5 11,5 5 3 18 10 NW 1009,6 50 0,0
09.08.2018 11:00:00 22,6 13,4 5 3 18 10 WSW 1009,1 45 0,0
09.08.2018 10:00:00 20,7 13,6 7 4 28 15 SW 1008,5 43 0,0
09.08.2018 09:00:00 19,8 12,3 6 3 28 15 W 1007,8 46 0,0
09.08.2018 08:00:00 20,6 15,4 6 3 22 12 SSW 1006,8 29 0,0
09.08.2018 07:00:00 18,8 14,9 4 2 20 11 WNW 1006,5 27 0,0
09.08.2018 06:00:00 17,5 14,9 7 4 11 6 NNE 1006,2 22 0,0
09.08.2018 05:00:00 15,5 13,0 3 1 10 5 SE 1005,8 5 0,0
09.08.2018 04:00:00 15,6 13,1 2 1 10 5 NW 1005,9 15 0,0
09.08.2018 03:00:00 16,5 13,8 0 0 15 8 N 1006,1 19 0,0
09.08.2018 02:00:00 17,1 14,6 4 2 15 8 NNE 1006,0 - 0,0
09.08.2018 01:00:00 18,0 15,3 7 4 14 8 NE 1006,1 34 0,0
09.08.2018 00:00:00 15,6 13,6 2 1 11 6 N 1006,6 10 0,0
08.08.2018 23:00:00 16,8 14,6 3 2 21 11 E 1006,6 12 0,0
08.08.2018 22:00:00 18,3 15,9 5 3 29 15 NE 1006,5 18 0,1
08.08.2018 21:00:00 19,7 16,5 16 9 29 15 SSE 1006,4 22 0,2
08.08.2018 20:00:00 18,0 16,3 6 3 13 7 NNW 1007,2 10 0,4
08.08.2018 19:00:00 17,9 15,7 3 2 10 5 N 1007,4 17 0,2
08.08.2018 18:00:00 18,0 14,7 0 0 44 24 N 1008,4 47 0,1
08.08.2018 17:00:00 17,8 14,5 6 3 44 24 NW 1009,1 22 2,5
08.08.2018 16:00:00 24,8 12,4 24 13 39 21 S 1007,7 43 0,0
08.08.2018 15:00:00 25,4 12,3 21 12 38 21 S 1007,9 48 0,0
08.08.2018 14:00:00 25,5 12,4 23 12 35 19 S 1008,3 34 0,0
08.08.2018 13:00:00 24,0 12,6 19 10 28 15 SSE 1008,8 41 0,0
08.08.2018 12:00:00 24,5 12,1 13 7 24 13 S 1009,3 40 0,0
08.08.2018 11:00:00 23,1 12,1 17 9 24 13 S 1009,8 48 0,0
08.08.2018 10:00:00 20,5 11,7 2 1 12 6 WSW 1010,2 45 0,0
08.08.2018 09:00:00 18,7 11,8 5 3 12 6 ENE 1010,3 48 0,0
08.08.2018 08:00:00 14,7 9,9 0 0 6 4 N 1011,0 50 0,0

tt = Température de l'air
td = dewpoint
ff = Vitesse du vent
fx = gusts
dd = Direction du vent
ppp = reduced air pressure
vv = visibility
rr = Quantités de précipitations

stations d'obs. à proximité